Location: *
(58.4167°N, 22.5000°E)
Time: 00:54:15
(UTC+00:00)

BREEZE M DEB (TANK) - Pass Details

Date: 22 September 2019
Orbit: 282 x 14545 km, 49.5° (Epoch: 13 October)

Event Time Altitude Azimuth Distance (km) Brightness Sun altitude
Rises 17:13:33 0° 229° (SW) 1,935 5.7 -6.4°
Reaches altitude 10° 17:15:31 10° 199° (SSW) 1,222 4.2 -6.7°
Maximum altitude 17:17:01 15° 158° (SSE) 1,150 3.7 -6.9°
Drops below altitude 10° 17:19:07 10° 119° (ESE) 1,802 4.3 -7.1°
Enters shadow 17:19:39 - 115° (ESE) 2,031 4.6 -7.2°
